N216TB TJPS-TIST

Flight info

Callsign N216TB
Flight time 0h 35m
Altitude 7000
Route DCT CLAYO DCT SANLO DCT LODZI DCT KUTHO DCT JAQYY DCT
Aircraft K100/L-L/C

Departure

Time 2026-04-21 12:51
Airport Mercedita International Airport (TJPS)

Arrival

Time 2026-04-21 13:26
Airport Cyril E. King Airport (TIST)
Time Latitude Longitude Altitude Speed Heading
2026-04-21 12:33 18.01009 -66.56301 33 ft 0 kts 319°
2026-04-21 12:45 18.01004 -66.56297 33 ft 3 kts 321°
2026-04-21 12:45 18.01001 -66.56302 27 ft 5 kts 252°
2026-04-21 12:46 18.00984 -66.56309 37 ft 4 kts 197°
2026-04-21 12:46 18.00972 -66.56364 33 ft 12 kts 286°
2026-04-21 12:46 18.01003 -66.56469 34 ft 18 kts 291°
2026-04-21 12:46 18.01048 -66.56614 34 ft 24 kts 286°
2026-04-21 12:47 18.01099 -66.56780 34 ft 19 kts 287°
2026-04-21 12:47 18.01089 -66.56834 34 ft 8 kts 218°
2026-04-21 12:47 18.01083 -66.56837 34 ft 0 kts 197°
2026-04-21 12:49 18.01073 -66.56840 34 ft 6 kts 195°
2026-04-21 12:50 18.01029 -66.56852 34 ft 7 kts 184°
2026-04-21 12:50 18.00995 -66.56828 34 ft 5 kts 119°
2026-04-21 12:50 18.00989 -66.56813 34 ft 0 kts 107°
2026-04-21 12:51 18.00920 -66.56583 35 ft 75 kts 107°
2026-04-21 12:51 18.00699 -66.55907 233 ft 114 kts 107°
2026-04-21 12:51 18.00431 -66.55069 632 ft 125 kts 108°
2026-04-21 12:51 18.00139 -66.54191 1079 ft 131 kts 107°
2026-04-21 12:52 18.00207 -66.53285 1527 ft 129 kts 56°
2026-04-21 12:52 18.00807 -66.52580 1946 ft 134 kts 50°
2026-04-21 12:52 18.01428 -66.51846 2371 ft 135 kts 51°
2026-04-21 12:52 18.02056 -66.51107 2805 ft 136 kts 45°
2026-04-21 12:53 18.02837 -66.50542 3246 ft 136 kts 40°
2026-04-21 12:53 18.03456 -66.49813 3698 ft 134 kts 64°
2026-04-21 12:53 18.03868 -66.48906 4135 ft 139 kts 68°
2026-04-21 12:53 18.04262 -66.47983 4569 ft 137 kts 68°
2026-04-21 12:54 18.04639 -66.47054 5021 ft 139 kts 68°
2026-04-21 12:54 18.05022 -66.46108 5448 ft 141 kts 69°
2026-04-21 12:54 18.05394 -66.45179 5872 ft 140 kts 68°
2026-04-21 12:54 18.05754 -66.44247 6317 ft 136 kts 73°
2026-04-21 12:55 18.06021 -66.43273 6747 ft 139 kts 74°
2026-04-21 12:55 18.06304 -66.42284 7010 ft 151 kts 74°
2026-04-21 12:55 18.06618 -66.41161 7015 ft 166 kts 73°
2026-04-21 12:55 18.06960 -66.39972 7017 ft 173 kts 73°
2026-04-21 12:56 18.07309 -66.38747 7022 ft 177 kts 73°
2026-04-21 12:56 18.07655 -66.37514 7020 ft 179 kts 73°
2026-04-21 12:56 18.08011 -66.36266 7027 ft 179 kts 73°
2026-04-21 12:56 18.08367 -66.35008 7025 ft 179 kts 73°
2026-04-21 12:57 18.08722 -66.33752 7027 ft 179 kts 74°
2026-04-21 12:57 18.09076 -66.32501 7021 ft 179 kts 73°
2026-04-21 12:57 18.09430 -66.31253 7023 ft 179 kts 73°
2026-04-21 12:57 18.09784 -66.30009 7028 ft 177 kts 73°
2026-04-21 12:58 18.10136 -66.28764 7021 ft 177 kts 74°
2026-04-21 12:58 18.10482 -66.27532 7030 ft 179 kts 73°
2026-04-21 12:58 18.10833 -66.26286 7028 ft 176 kts 74°
2026-04-21 12:58 18.11183 -66.25057 7029 ft 175 kts 73°
2026-04-21 12:59 18.11531 -66.23831 7026 ft 175 kts 73°
2026-04-21 12:59 18.11882 -66.22592 7026 ft 179 kts 73°
2026-04-21 12:59 18.12235 -66.21342 7027 ft 178 kts 73°
2026-04-21 12:59 18.12584 -66.20100 7020 ft 176 kts 74°
2026-04-21 13:00 18.12931 -66.18868 7032 ft 176 kts 73°
2026-04-21 13:00 18.13281 -66.17634 7036 ft 177 kts 73°
2026-04-21 13:00 18.13625 -66.16407 7027 ft 178 kts 73°
2026-04-21 13:00 18.13976 -66.15168 7030 ft 176 kts 74°
2026-04-21 13:01 18.14326 -66.13934 7034 ft 177 kts 74°
2026-04-21 13:01 18.14678 -66.12695 7025 ft 177 kts 73°
2026-04-21 13:01 18.15023 -66.11458 7030 ft 176 kts 73°
2026-04-21 13:01 18.15370 -66.10224 7033 ft 176 kts 73°
2026-04-21 13:02 18.15720 -66.08982 7033 ft 178 kts 74°
2026-04-21 13:02 18.16069 -66.07734 7020 ft 178 kts 73°
2026-04-21 13:02 18.16765 -66.05278 7023 ft 176 kts 74°
2026-04-21 13:03 18.17111 -66.04047 7029 ft 176 kts 74°
2026-04-21 13:03 18.17456 -66.02817 7019 ft 175 kts 73°
2026-04-21 13:03 18.17802 -66.01592 7025 ft 175 kts 74°
2026-04-21 13:03 18.18148 -66.00358 7024 ft 176 kts 74°
2026-04-21 13:04 18.18495 -65.99120 7033 ft 177 kts 74°
2026-04-21 13:04 18.18842 -65.97881 7024 ft 177 kts 74°
2026-04-21 13:04 18.19193 -65.96639 7021 ft 177 kts 74°
2026-04-21 13:04 18.19536 -65.95418 7025 ft 177 kts 74°
2026-04-21 13:05 18.19885 -65.94178 7023 ft 177 kts 73°
2026-04-21 13:05 18.20200 -65.92932 7028 ft 176 kts 78°
2026-04-21 13:05 18.20465 -65.91679 7024 ft 175 kts 77°
2026-04-21 13:05 18.20739 -65.90429 7031 ft 176 kts 78°
2026-04-21 13:06 18.21010 -65.89172 7025 ft 176 kts 77°
2026-04-21 13:06 18.21283 -65.87921 7032 ft 175 kts 77°
2026-04-21 13:06 18.21553 -65.86665 7023 ft 176 kts 77°
2026-04-21 13:06 18.21820 -65.85429 7032 ft 176 kts 78°
2026-04-21 13:07 18.22089 -65.84181 7029 ft 174 kts 78°
2026-04-21 13:07 18.22360 -65.82930 7036 ft 177 kts 77°
2026-04-21 13:07 18.22634 -65.81666 7026 ft 176 kts 77°
2026-04-21 13:07 18.22906 -65.80417 7030 ft 176 kts 77°
2026-04-21 13:08 18.23175 -65.79165 6979 ft 178 kts 78°
2026-04-21 13:08 18.23451 -65.77876 6793 ft 182 kts 78°
2026-04-21 13:08 18.23726 -65.76588 6600 ft 179 kts 78°
2026-04-21 13:08 18.23997 -65.75333 6407 ft 177 kts 78°
2026-04-21 13:09 18.24269 -65.74069 6220 ft 179 kts 78°
2026-04-21 13:09 18.24542 -65.72794 6012 ft 178 kts 78°
2026-04-21 13:09 18.24817 -65.71526 5815 ft 178 kts 78°
2026-04-21 13:09 18.25090 -65.70264 5616 ft 176 kts 78°
2026-04-21 13:10 18.25359 -65.69018 5437 ft 175 kts 79°
2026-04-21 13:10 18.25623 -65.67766 5223 ft 175 kts 78°
2026-04-21 13:10 18.25897 -65.66525 5052 ft 174 kts 78°
2026-04-21 13:10 18.26163 -65.65300 5041 ft 171 kts 78°
2026-04-21 13:11 18.26416 -65.64099 5031 ft 170 kts 79°
2026-04-21 13:11 18.26670 -65.62902 5025 ft 167 kts 78°
2026-04-21 13:11 18.26928 -65.61725 5028 ft 164 kts 78°
2026-04-21 13:11 18.27179 -65.60553 5026 ft 163 kts 78°
2026-04-21 13:12 18.27346 -65.59374 5021 ft 163 kts 83°
2026-04-21 13:12 18.27501 -65.58195 5025 ft 162 kts 82°
2026-04-21 13:12 18.27661 -65.57016 5025 ft 163 kts 82°
2026-04-21 13:12 18.27819 -65.55840 5027 ft 163 kts 83°
2026-04-21 13:13 18.27975 -65.54679 5027 ft 162 kts 83°
2026-04-21 13:13 18.28131 -65.53501 5022 ft 162 kts 83°
2026-04-21 13:13 18.28289 -65.52322 5025 ft 163 kts 83°
2026-04-21 13:13 18.28447 -65.51140 5028 ft 163 kts 83°
2026-04-21 13:14 18.28604 -65.49960 5027 ft 163 kts 83°
2026-04-21 13:14 18.28761 -65.48778 5024 ft 163 kts 82°
2026-04-21 13:14 18.28922 -65.47575 4873 ft 170 kts 83°
2026-04-21 13:14 18.29087 -65.46331 4678 ft 173 kts 83°
2026-04-21 13:15 18.29252 -65.45093 4485 ft 173 kts 82°
2026-04-21 13:15 18.29422 -65.43835 4285 ft 174 kts 83°
2026-04-21 13:15 18.29589 -65.42576 4090 ft 174 kts 83°
2026-04-21 13:15 18.29754 -65.41317 3897 ft 174 kts 82°
2026-04-21 13:16 18.29921 -65.40060 3700 ft 174 kts 82°
2026-04-21 13:16 18.30089 -65.38802 3500 ft 174 kts 83°
2026-04-21 13:16 18.30254 -65.37550 3309 ft 172 kts 82°
2026-04-21 13:16 18.30420 -65.36300 3111 ft 173 kts 83°
2026-04-21 13:17 18.30585 -65.35053 2908 ft 172 kts 82°
2026-04-21 13:17 18.30747 -65.33835 2829 ft 168 kts 82°
2026-04-21 13:17 18.30908 -65.32645 2829 ft 162 kts 83°
2026-04-21 13:17 18.31062 -65.31475 2839 ft 162 kts 85°
2026-04-21 13:18 18.31217 -65.30272 2828 ft 171 kts 83°
2026-04-21 13:18 18.31381 -65.29020 2820 ft 174 kts 82°
2026-04-21 13:18 18.31540 -65.27781 2828 ft 168 kts 82°
2026-04-21 13:18 18.31708 -65.26574 2844 ft 165 kts 81°
2026-04-21 13:19 18.31884 -65.25355 2828 ft 172 kts 84°
2026-04-21 13:19 18.32031 -65.24151 2812 ft 165 kts 83°
2026-04-21 13:19 18.32184 -65.22955 2816 ft 165 kts 82°
2026-04-21 13:19 18.32337 -65.21760 2813 ft 164 kts 82°
2026-04-21 13:20 18.32496 -65.20585 2815 ft 161 kts 82°
2026-04-21 13:20 18.32651 -65.19418 2814 ft 161 kts 82°
2026-04-21 13:20 18.32806 -65.18252 2812 ft 161 kts 83°
2026-04-21 13:20 18.32878 -65.17082 2814 ft 161 kts 88°
2026-04-21 13:21 18.32926 -65.15896 2724 ft 166 kts 88°
2026-04-21 13:21 18.32981 -65.14684 2523 ft 170 kts 87°
2026-04-21 13:21 18.33037 -65.13442 2333 ft 170 kts 87°
2026-04-21 13:21 18.33089 -65.12199 2141 ft 170 kts 90°
2026-04-21 13:22 18.33069 -65.10999 2124 ft 158 kts 89°
2026-04-21 13:22 18.33106 -65.09869 2103 ft 153 kts 88°
2026-04-21 13:22 18.33146 -65.08749 1929 ft 152 kts 88°
2026-04-21 13:22 18.33210 -65.07639 1729 ft 152 kts 88°
2026-04-21 13:23 18.33259 -65.06545 1532 ft 143 kts 87°
2026-04-21 13:23 18.33308 -65.05564 1353 ft 132 kts 87°
2026-04-21 13:23 18.33353 -65.04653 1198 ft 120 kts 86°
2026-04-21 13:23 18.33395 -65.03799 1045 ft 114 kts 87°
2026-04-21 13:24 18.33437 -65.02986 905 ft 106 kts 85°
2026-04-21 13:24 18.33477 -65.02268 780 ft 88 kts 89°
2026-04-21 13:24 18.33507 -65.01672 673 ft 76 kts 91°
2026-04-21 13:24 18.33533 -65.01125 575 ft 72 kts 86°
2026-04-21 13:25 18.33563 -65.00606 486 ft 75 kts 93°
2026-04-21 13:25 18.33582 -65.00018 381 ft 88 kts 91°
2026-04-21 13:25 18.33616 -64.99349 261 ft 94 kts 91°
2026-04-21 13:25 18.33660 -64.98724 145 ft 79 kts 86°
2026-04-21 13:26 18.33697 -64.98187 62 ft 68 kts 89°
2026-04-21 13:26 18.33720 -64.97717 25 ft 60 kts 95°
2026-04-21 13:26 18.33727 -64.97362 22 ft 40 kts 91°
2026-04-21 13:26 18.33733 -64.97104 20 ft 34 kts 87°
2026-04-21 13:27 18.33747 -64.96891 15 ft 20 kts 87°
2026-04-21 13:27 18.33753 -64.96780 13 ft 12 kts 85°
2026-04-21 13:27 18.33759 -64.96711 13 ft 9 kts 73°
2026-04-21 13:27 18.33794 -64.96689 13 ft 0 kts 359°
2026-04-21 13:28 18.33816 -64.96688 13 ft 7 kts 360°
2026-04-21 13:28 18.33864 -64.96690 14 ft 8 kts 357°
2026-04-21 13:28 18.33899 -64.96693 14 ft 4 kts 344°
2026-04-21 13:29 18.33911 -64.96718 14 ft 5 kts 258°
2026-04-21 13:29 18.33891 -64.96728 15 ft 0 kts 181°